Location: Siratepeler Tepesi
(39.1042°N, 32.0781°E)
Time: 02:26:26
(UTC+00:00)

USA 281 - Pass Details

Date: 11 April 2026
Orbit: 1079 x 1080 km, 106.0° (Epoch: 5 January)

Event Time Altitude Azimuth Distance (km) Brightness Sun altitude
Exits shadow 22:41:15 36° 34° (NNE) 1,656 4.4 -41.0°
Drops below altitude 10° 22:46:00 10° 352° (N) 2,927 6.0 -40.7°
Sets 22:48:41 0° 345° (NNW) 3,887 6.8 -40.6°
